GEFSSGP_con_cape1000_000.txt.gz
Probability
0 0 0 0 0 0 0 0 0 3 42 42 0 0 3 13 10 3 6 26 94 97 97 97 100 100 100 100 100 100 100 100 100 100 100 100 100 100 100 100 100 100 100 100 100 100 100 100 100
0 0 0 0 0 0 0 0 0 3 90 26 3 26 61 77 39 6 16 23 87 90 100 100 100 100 100 100 100 100 100 100 100 100 100 100 100 100 100 100 100 100 100 100 100 100 100 100 100
0 0 0 0 0 0 0 0 0 97 81 26 32 71 100 100 45 19 10 16 48 94 97 100 100 100 87 84 97 100 100 100 100 100 100 100 100 100 100 100 100 100 100 100 97 100 100 100 100
0 0 0 0 0 0 0 0 68 100 74 16 26 65 94 100 94 19 16 45 87 97 97 100 100 100 100 100 90 97 100 100 100 100 100 100 100 100 94 94 97 97 94 58 94 97 94 97 97
0 0 0 0 0 0 0 3 32 19 58 81 19 0 100 97 29 16 42 100 100 100 100 100 100 100 100 100 100 100 97 97 100 100 94 97 84 68 90 97 97 94 84 87 77 32 13 3 3
0 0 0 0 0 0 0 0 3 0 3 19 0 0 100 100 39 19 39 100 100 100 100 100 100 100 100 100 100 100 100 100 100 94 84 100 100 94 81 94 90 100 100 77 10 0 0 0 0
0 0 0 0 0 0 0 0 0 0 0 3 0 0 100 100 32 29 55 90 94 94 100 100 100 100 100 100 100 100 100 100 100 97 87 87 90 87 87 90 100 100 71 10 0 0 0 0 0
0 0 0 0 0 0 0 0 0 3 0 0 0 0 45 84 39 61 81 90 100 100 100 100 100 100 100 100 100 100 100 100 100 100 94 94 97 100 100 94 100 29 19 0 0 0 0 0 0
0 0 0 0 0 0 0 0 0 0 0 0 19 68 100 90 45 84 90 100 100 100 100 100 100 100 100 100 100 100 100 100 100 100 100 100 100 100 100 97 97 10 0 0 0 0 0 0 0
0 0 0 0 0 0 0 0 0 0 0 0 61 100 100 87 58 77 94 100 100 100 90 100 100 100 100 100 100 100 100 100 100 100 100 100 100 100 97 16 0 0 0 0 0 0 0 0 0
0 0 0 0 0 0 0 0 0 0 0 0 0 100 100 97 81 61 100 100 77 32 35 97 100 100 100 100 100 100 100 100 100 100 100 97 100 90 42 0 0 0 0 0 0 0 0 0 0
0 0 0 0 0 0 0 0 0 0 0 0 0 94 100 100 90 90 100 74 16 23 58 100 100 100 100 100 94 90 90 100 100 100 97 100 71 32 0 0 0 0 0 0 0 0 0 0 0
0 0 0 0 0 0 0 0 0 0 0 0 0 94 100 100 100 100 87 29 10 45 77 100 100 100 100 100 87 87 90 81 77 55 19 3 0 0 0 0 0 0 0 0 0 0 0 0 0
0 0 0 0 0 0 0 0 0 0 0 0 32 97 100 100 100 100 87 48 55 84 87 100 100 100 100 90 87 71 3 16 6 3 0 0 0 0 0 0 0 0 0 0 0 0 0 0 0
0 0 0 0 0 0 0 0 0 0 0 0 3 87 97 100 100 97 61 19 97 100 100 97 94 94 87 58 26 3 0 0 0 0 0 0 0 0 0 0 0 0 0 0 0 0 0 0 0
0 0 0 0 0 0 0 0 0 0 0 0 0 19 90 100 100 87 39 68 100 100 100 100 45 74 94 55 6 3 0 0 0 0 0 0 0 0 0 0 0 0 0 0 0 0 0 0 0
0 0 0 0 0 0 0 0 0 0 0 0 0 3 48 84 94 84 74 97 100 100 100 97 58 61 74 32 19 3 3 0 0 0 0 0 0 0 0 0 0 0 0 0 0 0 0 0 0
0 0 0 0 0 0 0 0 0 0 0 0 0 0 0 6 48 97 100 100 100 100 100 94 39 29 61 39 19 3 3 0 0 0 0 0 0 0 0 0 0 3 0 0 0 0 0 0 0
0 0 0 0 0 0 0 0 0 0 0 0 0 0 0 0 10 26 52 74 100 100 100 61 19 0 19 90 68 13 0 0 0 0 0 0 0 0 3 0 0 6 0 0 0 0 0 0 0
0 0 0 0 0 0 0 0 0 0 0 0 0 0 0 0 0 0 10 52 87 100 94 58 35 0 6 58 42 3 0 0 0 0 16 3 3 3 3 16 0 0 0 0 0 0 0 0 0
0 0 0 0 0 0 0 0 0 0 0 0 0 0 0 0 0 0 0 6 61 74 58 32 23 3 3 3 6 3 16 0 0 6 6 0 0 0 0 0 0 0 0 0 0 0 0 0 0
0 0 0 0 0 0 0 0 0 0 0 0 0 0 0 0 0 0 0 3 19 10 0 0 10 6 0 0 0 0 0 10 0 0 0 0 0 0 0 0 0 0 0 0 0 0 0 0 0
0 0 0 0 0 0 0 0 0 0 0 0 0 0 0 0 0 0 0 0 0 0 0 0 0 0 0 0 0 0 0 0 0 0 0 0 0 0 0 0 0 0 0 0 0 0 0 0 0
0 0 0 0 0 0 0 0 0 0 0 0 0 0 0 0 0 0 0 0 0 0 0 0 0 0 0 0 0 0 0 0 0 0 0 0 0 0 0 0 0 0 0 0 0 0 0 0 0
0 0 0 0 0 0 0 0 0 0 0 0 0 0 0 0 0 0 0 0 0 0 0 0 0 0 0 0 0 0 0 0 0 0 0 0 0 0 0 0 0 0 0 0 0 0 0 0 0
0 0 0 0 0 0 0 0 0 0 0 0 0 0 0 0 0 0 0 0 0 0 0 0 0 0 0 0 0 0 0 0 0 0 0 0 0 0 0 0 0 0 0 0 0 0 0 0 0
0 0 0 0 0 0 0 0 0 0 0 0 0 0 0 0 0 0 0 0 0 0 0 0 0 0 0 0 0 0 0 0 0 0 0 0 0 0 0 0 0 0 0 0 0 0 0 0 0
0 0 0 0 0 0 0 0 0 0 0 0 0 0 0 0 0 0 0 0 0 0 0 0 0 0 0 0 0 0 0 0 0 0 0 0 0 0 0 0 0 0 0 0 0 0 0 0 0
0 0 0 0 0 0 0 0 0 0 0 0 0 0 0 0 0 0 0 0 0 0 0 0 0 0 0 0 0 0 0 0 0 0 0 0 0 0 0 0 0 0 0 0 0 0 0 0 0
0 0 0 0 0 0 0 0 0 0 0 0 0 0 0 0 0 0 0 0 0 0 0 0 0 0 0 0 0 0 0 0 0 0 0 0 0 0 0 0 0 0 0 0 0 0 0 0 0

GEFSSGP_con_cape1000_006.txt.gz
Probability
0 0 0 0 0 0 0 0 0 0 0 0 0 0 19 77 74 100 77 100 100 100 97 100 100 100 100 100 100 100 100 100 100 100 100 100 100 100 100 100 100 100 100 100 100 97 100 100 100
0 0 0 0 0 0 0 0 0 0 0 0 0 0 42 94 55 81 100 100 100 100 100 100 100 100 100 100 100 100 100 100 100 100 100 100 100 100 100 100 100 100 100 100 97 97 100 94 94
0 0 0 0 0 0 0 0 0 0 0 0 0 0 26 48 42 97 100 100 100 100 100 100 100 100 100 100 100 100 100 100 100 100 100 100 100 100 100 100 100 100 100 100 100 94 90 87 84
0 0 0 0 0 0 0 0 0 0 0 0 0 0 16 3 52 90 94 100 100 100 97 97 100 100 100 100 100 100 100 100 97 94 100 100 100 100 100 100 97 100 100 94 81 68 35 19 6
0 0 0 0 0 0 0 0 0 0 0 0 0 6 29 35 74 87 94 100 97 100 100 94 100 97 94 94 100 100 100 100 97 97 97 100 97 97 97 94 97 97 87 55 19 3 0 0 0
0 0 0 0 0 0 0 0 0 0 0 0 0 0 19 74 90 97 97 97 97 100 100 100 100 100 100 100 100 100 100 100 100 100 97 97 90 94 94 97 97 90 52 10 0 0 0 0 0
0 0 0 0 0 0 0 0 0 0 0 0 0 0 23 71 97 100 100 97 97 100 100 100 100 100 100 100 100 100 100 100 100 100 100 97 97 87 90 100 87 81 35 3 0 0 0 0 0
0 0 0 0 0 0 0 0 0 0 0 0 0 0 42 71 94 90 97 97 94 100 97 97 100 100 100 100 100 100 100 100 100 100 97 97 90 87 94 94 87 81 35 10 0 0 0 0 0
0 0 0 0 0 0 0 0 0 0 0 0 0 13 58 42 55 61 71 74 90 100 97 100 100 100 100 100 100 100 100 100 100 100 94 94 97 97 97 74 77 42 16 6 0 0 0 0 0
0 0 0 0 0 0 0 0 0 0 0 0 3 39 35 26 45 42 52 68 71 97 77 45 61 97 100 100 100 100 100 100 100 100 100 100 100 100 90 52 26 0 6 0 0 0 0 0 0
0 0 0 0 0 0 0 0 0 0 0 0 3 35 19 32 39 48 68 65 71 84 48 10 13 77 74 94 100 100 100 100 100 100 100 100 100 94 39 3 0 0 0 0 0 0 0 0 0
0 0 0 0 0 0 0 0 0 0 0 0 3 19 19 23 26 45 74 77 68 42 23 3 29 52 97 87 61 90 94 100 97 100 100 100 97 94 65 19 0 0 0 0 0 0 0 0 0
0 0 0 0 0 0 0 0 0 0 0 0 6 10 6 10 3 10 32 23 19 0 3 13 94 100 100 100 84 71 74 77 84 74 45 58 81 23 0 0 3 0 0 0 0 0 0 0 0
0 0 0 0 0 0 0 0 0 0 0 0 0 3 3 0 0 0 6 3 3 6 48 81 90 100 100 100 100 84 48 61 23 16 6 3 6 6 3 0 0 3 3 13 10 0 0 0 0
0 0 0 0 0 0 0 0 0 0 0 0 0 0 0 0 0 0 0 6 3 29 97 100 97 94 90 84 26 3 0 3 3 6 0 0 0 0 0 29 6 29 32 6 10 10 42 29 6
0 0 0 0 0 0 0 0 0 0 0 0 0 0 0 3 0 0 0 23 32 42 94 94 39 77 84 94 48 16 10 3 3 3 3 0 0 3 23 65 52 58 19 19 35 74 0 16 42
0 0 0 0 0 0 0 0 0 0 0 0 0 0 0 0 0 3 6 26 68 61 55 45 68 81 65 71 77 48 45 45 16 3 10 0 0 0 6 65 81 71 68 71 26 19 68 55 55
0 0 0 0 0 0 0 0 0 0 0 0 0 0 0 0 3 13 29 74 81 48 26 35 55 68 68 65 74 84 45 35 26 45 45 10 16 23 35 81 87 81 90 87 84 58 65 58 42
0 0 0 0 0 0 0 0 0 0 0 0 0 0 0 3 10 26 58 87 90 74 32 23 52 68 77 77 77 87 77 58 45 58 39 29 65 65 81 48 74 81 71 58 35 23 3 3 6
0 0 0 0 0 0 0 0 0 0 0 0 0 0 0 0 6 26 61 90 81 61 48 39 32 45 61 74 94 77 55 10 10 26 29 16 16 26 10 58 13 29 29 32 35 16 0 0 0
0 0 0 0 0 0 0 0 0 0 0 0 0 0 0 0 6 48 48 42 58 55 35 26 23 10 19 32 23 23 48 26 10 16 10 3 0 3 16 13 6 10 3 3 3 3 0 0 0
0 0 0 0 0 0 0 0 0 0 0 0 0 0 0 16 19 10 6 3 3 3 6 10 6 0 0 3 3 3 10 6 0 0 0 0 0 0 3 6 0 0 0 3 0 0 0 0 0
0 0 0 0 0 0 0 0 0 0 0 0 0 0 3 0 0 0 0 0 0 0 0 0 3 0 0 3 0 0 0 0 0 0 0 0 0 0 0 0 0 0 0 0 0 0 0 0 0
0 0 0 0 0 0 0 0 0 0 0 0 0 0 0 0 0 0 0 0 0 0 0 0 0 0 0 0 0 0 0 0 0 0 0 0 0 0 0 0 0 0 0 0 0 0 0 0 0
0 0 0 0 0 0 0 0 0 0 0 0 0 0 0 0 0 0 0 0 0 0 0 0 0 0 0 0 0 0 0 0 0 0 0 0 0 0 0 0 0 0 0 0 0 0 0 0 0
0 0 0 0 0 0 0 0 0 0 0 0 0 0 0 0 0 0 0 0 0 0 0 0 0 0 0 0 0 0 0 0 0 0 0 0 0 0 0 0 0 0 0 0 0 0 0 0 0
0 0 0 0 0 0 0 0 0 0 0 0 0 0 0 0 0 0 0 0 0 0 0 0 0 0 0 0 0 0 0 0 0 0 0 0 0 0 0 0 0 0 0 0 0 0 0 0 0
0 0 0 0 0 0 0 0 0 0 0 0 0 0 0 0 0 0 0 0 0 0 0 0 0 0 0 0 0 0 0 0 0 0 0 0 0 0 0 0 0 0 0 0 0 0 0 0 0
0 0 0 0 0 0 0 0 0 0 0 0 0 0 0 0 0 0 0 0 0 0 0 0 0 0 0 0 0 0 0 0 0 0 0 0 0 0 0 0 0 0 0 0 0 0 0 0 0
0 0 0 0 0 0 0 0 0 0 0 0 0 0 0 0 0 0 0 0 0 0 0 0 0 0 0 0 0 0 0 0 0 0 0 0 0 0 0 0 0 0 0 0 0 0 0 0 0

GEFSSGP_con_cape1000_012.txt.gz
Probability
0 0 0 0 0 0 0 0 0 0 0 6 26 32 58 68 52 32 6 26 19 87 100 100 100 100 100 100 100 100 100 100 100 100 100 100 100 100 100 100 100 100 100 100 100 100 100 100 100
0 0 0 0 0 0 0 0 0 0 3 23 55 77 87 87 84 58 19 19 26 84 100 100 100 100 100 100 100 100 100 100 100 100 100 100 100 100 100 100 100 100 100 100 100 100 97 97 97
0 0 0 0 0 0 0 0 0 0 0 3 10 16 55 100 100 94 42 39 77 90 100 100 100 100 100 100 100 100 100 100 100 100 100 100 100 100 100 100 100 100 100 100 100 100 100 100 100
0 0 0 0 0 0 0 0 0 0 0 0 0 6 32 90 100 100 68 77 97 100 100 100 100 100 100 100 100 100 100 100 100 100 100 100 100 100 100 100 100 100 100 100 100 100 100 84 71
0 0 0 0 0 0 0 0 0 0 0 0 10 29 74 94 97 84 97 94 97 97 100 100 100 100 100 100 100 100 100 100 100 100 97 97 97 100 100 100 100 100 100 100 84 74 39 16 6
0 0 0 0 0 0 0 0 0 0 0 0 10 35 68 94 97 97 97 87 81 84 90 100 100 100 100 100 100 100 100 100 100 97 97 97 97 97 100 100 100 100 94 71 45 16 6 0 0
0 0 0 0 0 0 0 0 0 0 0 0 0 35 68 87 94 97 90 81 71 68 74 81 97 97 100 100 100 100 100 100 97 97 90 94 100 97 100 100 100 97 71 35 10 3 0 0 0
0 0 0 0 0 0 0 0 0 0 0 0 6 29 42 77 87 94 81 74 65 61 65 74 94 97 100 100 100 100 100 100 100 100 97 97 94 100 97 100 94 81 45 16 0 0 0 0 0
0 0 0 0 0 0 0 0 0 0 0 0 0 13 26 84 90 77 77 71 65 55 52 61 87 97 97 94 100 100 100 100 100 97 100 97 68 71 84 84 90 71 29 10 0 0 0 0 0
0 0 0 0 0 0 0 0 0 0 0 13 35 42 55 84 77 74 71 68 61 55 58 61 84 97 100 100 100 100 100 100 94 81 90 61 16 26 58 77 81 61 32 16 3 0 3 0 0
0 0 0 0 0 0 0 0 0 0 0 0 13 45 68 71 74 74 77 65 55 52 55 71 81 97 97 97 90 81 71 52 35 32 23 10 6 0 29 3 16 29 19 0 0 0 0 0 0
0 0 0 0 0 0 0 0 0 0 0 3 6 42 58 58 65 65 61 68 55 52 58 77 87 74 68 84 90 90 74 39 23 16 0 0 0 0 0 0 0 0 0 0 0 0 0 0 0
0 0 0 0 0 0 0 0 0 0 0 0 13 42 52 48 45 42 52 48 48 35 39 48 35 29 26 39 35 71 68 58 13 3 3 3 3 0 3 0 0 0 0 0 0 0 0 0 0
0 0 0 0 0 0 0 0 0 0 0 0 6 19 23 26 19 23 29 32 29 19 19 16 6 3 0 0 3 16 10 10 0 0 0 0 0 0 0 0 0 0 0 0 0 0 0 0 0
0 0 0 0 0 0 0 0 0 0 0 0 0 10 16 13 16 19 16 19 16 3 3 3 0 0 0 0 0 0 0 0 0 0 0 0 0 0 0 0 0 0 0 0 0 0 0 0 0
0 0 0 0 0 0 0 0 0 0 0 0 0 6 6 6 6 13 10 10 3 0 0 0 0 0 0 0 0 0 0 0 0 0 0 0 0 0 0 0 0 0 0 0 0 0 0 0 0
0 0 0 0 0 0 0 0 0 0 3 3 3 6 10 6 3 6 6 0 0 0 0 0 0 0 0 0 0 0 0 0 0 0 0 0 0 0 0 0 0 0 0 0 0 0 0 0 0
0 0 0 0 0 0 0 0 0 0 3 3 6 19 19 13 6 0 0 0 0 0 0 0 0 0 0 0 0 0 0 0 0 0 0 0 0 0 0 0 0 0 0 0 0 0 0 0 0
0 0 0 0 0 0 0 0 0 3 10 19 32 23 35 32 6 3 0 0 0 0 0 0 0 0 0 0 0 0 0 0 0 0 0 0 0 0 0 0 0 0 0 0 0 0 0 0 0
0 0 0 0 0 0 0 0 0 0 3 23 32 45 52 45 35 13 6 0 0 0 0 0 0 0 0 0 0 0 0 0 0 0 0 0 0 0 0 0 0 0 0 0 0 0 0 0 0
0 0 0 0 0 0 0 0 0 0 0 10 23 42 39 35 26 13 3 0 0 0 0 0 0 0 0 0 0 0 0 0 0 0 0 0 0 0 0 0 0 0 0 0 0 0 0 0 0
0 0 0 0 0 0 0 0 0 0 0 0 13 16 16 19 10 0 0 0 0 0 0 0 0 0 0 0 0 0 0 0 0 0 0 0 0 0 0 0 0 0 0 0 0 0 0 0 0
0 0 0 0 0 0 0 0 0 0 0 0 3 3 3 3 3 0 0 0 0 0 0 0 0 0 0 0 0 0 0 0 0 0 0 0 0 0 0 0 0 0 0 0 0 0 0 0 0
0 0 0 0 0 0 0 0 0 0 0 0 0 0 0 0 0 0 0 0 0 0 0 0 0 0 0 0 0 0 0 0 0 0 0 0 0 0 0 0 0 0 0 0 0 0 0 0 0
0 0 0 0 0 0 0 0 0 0 0 0 0 0 0 0 0 0 0 0 0 0 0 0 0 0 0 0 0 0 0 0 0 0 0 0 0 0 0 0 0 0 0 0 0 0 0 0 0
0 0 0 0 0 0 0 0 0 0 0 0 0 0 0 0 0 0 0 0 0 0 0 0 0 0 0 0 0 0 0 0 0 0 0 0 0 0 0 0 0 0 0 0 0 0 0 0 0
0 0 0 0 0 0 0 0 0 0 0 0 0 0 0 0 0 0 0 0 0 0 0 0 0 0 0 0 0 0 0 0 0 0 0 0 0 0 0 0 0 0 0 0 0 0 0 0 0
0 0 0 0 0 0 0 0 0 0 0 0 0 0 0 0 0 0 0 0 0 0 0 0 0 0 0 0 0 0 0 0 0 0 0 0 0 0 0 0 0 0 0 0 0 0 0 0 0
0 0 0 0 0 0 0 0 0 0 0 0 0 0 0 0 0 0 0 0 0 0 0 0 0 0 0 0 0 0 0 0 0 0 0 0 0 0 0 0 0 0 0 0 0 0 0 0 0
0 0 0 0 0 0 0 0 0 0 0 0 0 0 0 0 0 0 0 0 0 0 0 0 0 0 0 0 0 0 0 0 0 0 0 0 0 0 0 0 0 0 0 0 0 0 0 0 0

GEFSSGP_con_cape1000_018.txt.gz
Probability
0 0 0 0 0 0 0 0 0 0 0 0 3 6 16 26 3 0 0 32 45 65 94 100 100 100 100 100 100 100 100 100 100 100 100 100 100 100 100 100 100 100 100 100 100 100 100 100 100
0 0 0 0 0 0 0 0 0 0 3 13 45 74 71 90 65 29 23 48 55 90 100 100 100 100 100 100 100 100 100 100 100 100 100 100 100 100 100 100 100 100 100 100 100 100 100 100 100
0 0 0 0 0 0 0 0 0 6 3 0 19 81 97 100 77 42 26 42 71 94 100 100 100 100 100 100 100 100 100 100 100 100 100 100 100 100 100 100 100 100 100 100 100 100 100 97 94
0 0 0 0 0 0 0 0 0 6 0 0 23 74 90 100 90 35 32 52 87 100 100 100 100 100 100 100 100 100 100 100 100 100 100 100 100 100 100 100 100 100 100 100 100 97 87 68 48
0 0 0 0 0 0 0 0 0 0 0 6 65 77 90 90 71 29 39 71 87 100 100 100 100 100 100 100 100 100 100 100 100 100 100 97 97 97 97 97 100 100 100 97 84 77 42 23 6
0 0 0 0 0 0 0 0 0 0 0 23 61 74 94 74 52 42 68 87 94 100 100 100 100 100 100 100 100 100 100 100 100 97 97 97 94 90 94 97 100 100 87 74 65 39 13 3 0
0 0 0 0 0 0 0 0 0 0 0 26 58 77 94 84 65 68 77 84 97 97 97 97 97 100 100 100 100 100 100 100 100 100 97 94 84 84 97 97 100 90 81 65 35 10 6 0 0
0 0 0 0 0 0 0 0 0 0 0 3 61 68 87 87 81 81 68 45 68 65 81 84 90 97 100 100 100 100 100 100 100 100 94 94 97 94 97 97 100 87 74 45 23 6 0 0 0
0 0 0 0 0 0 0 0 0 0 0 13 26 55 84 97 84 77 65 48 45 55 61 71 77 84 90 100 100 100 100 100 97 100 97 94 45 32 52 68 87 71 71 32 13 3 0 0 0
0 0 0 0 0 0 0 0 0 0 0 19 58 84 94 94 81 77 68 55 45 52 52 65 71 71 71 90 97 84 97 90 87 74 74 35 6 0 16 16 84 68 45 23 16 16 0 0 0
0 0 0 0 0 0 0 0 0 0 3 19 65 97 94 94 87 77 65 39 26 39 55 61 48 61 52 48 39 13 19 29 26 26 16 0 0 0 0 0 0 0 0 0 0 0 0 0 0
0 0 0 0 0 0 0 0 0 0 0 6 58 97 94 94 84 74 65 52 48 52 52 52 45 48 26 16 13 0 0 0 0 0 0 0 0 0 0 0 0 0 0 0 0 0 0 0 0
0 0 0 0 0 0 0 0 0 0 3 23 71 90 94 90 90 74 65 52 55 45 48 55 58 42 16 3 3 0 0 0 0 0 0 0 0 0 0 0 0 0 0 0 0 0 0 0 0
0 0 0 0 0 0 0 0 0 0 16 42 77 90 97 90 90 77 61 55 48 39 45 48 48 26 13 6 3 3 0 0 0 0 0 0 0 0 0 0 0 0 0 0 0 0 0 0 0
0 0 0 0 0 0 0 0 0 0 23 48 77 94 97 94 87 77 61 58 45 39 35 32 23 0 0 0 0 0 0 0 0 0 0 0 0 0 0 0 0 0 0 0 0 0 0 0 0
0 0 0 0 0 0 0 0 0 0 26 45 65 84 94 90 90 74 58 45 42 35 26 16 6 0 0 0 0 0 0 0 0 0 0 0 0 0 0 0 0 0 0 0 0 0 0 0 0
0 0 0 0 0 0 0 0 0 0 6 26 65 87 87 77 61 48 45 35 19 10 6 3 0 0 0 0 0 0 0 0 0 0 0 0 0 0 0 0 0 0 0 0 0 0 0 0 0
0 0 0 0 0 0 0 0 0 0 0 3 23 58 68 52 42 19 10 6 3 0 0 0 0 0 0 0 0 0 0 0 0 0 0 0 0 0 0 0 0 0 0 0 0 0 0 0 0
0 0 0 0 0 0 0 0 0 0 3 0 0 10 26 29 10 3 3 0 0 0 0 0 0 0 0 0 0 0 0 0 0 0 0 0 0 0 0 0 0 0 0 0 0 0 0 0 0
0 0 0 0 0 0 0 0 0 0 3 3 3 3 3 0 0 3 3 0 0 0 0 0 0 0 0 0 0 0 0 0 0 0 0 0 0 0 0 0 0 0 0 0 0 0 0 0 0
0 0 0 0 0 0 0 0 0 0 6 6 10 6 0 0 0 3 0 0 0 0 0 0 0 0 0 0 0 0 0 0 0 0 0 0 0 0 0 0 0 0 0 0 0 0 0 0 0
0 0 0 0 0 0 0 0 0 0 0 6 3 10 10 0 0 0 0 0 0 0 0 0 0 0 0 0 0 0 0 0 0 0 0 0 0 0 0 0 0 0 0 0 0 0 0 0 0
0 0 0 0 0 0 0 0 0 0 0 0 10 10 6 6 0 0 0 0 0 0 0 0 0 0 0 0 0 0 0 0 0 0 0 0 0 0 0 0 0 0 0 0 0 0 0 0 0
0 0 0 0 0 0 0 0 0 0 0 0 0 16 13 3 0 0 0 0 0 0 0 0 0 0 0 0 0 0 0 0 0 0 0 0 0 0 0 0 0 0 0 0 0 0 0 0 0
0 0 0 0 0 0 0 0 0 0 0 0 3 19 19 3 0 0 0 0 0 0 0 0 0 0 0 0 0 0 0 0 0 0 0 0 0 0 0 0 0 0 0 0 0 0 0 0 0
0 0 0 0 0 0 0 0 0 0 0 0 0 13 10 3 0 0 0 0 0 0 0 0 0 0 0 0 0 0 0 0 0 0 0 0 0 0 0 0 0 0 0 0 0 0 0 0 0
0 0 0 0 0 0 0 0 0 0 0 0 0 3 13 0 0 0 0 0 0 0 0 0 0 0 0 0 0 0 0 0 0 0 0 0 0 0 0 0 0 0 0 0 0 0 0 0 0
0 0 0 0 0 0 0 0 0 0 0 0 0 0 0 0 0 0 0 0 0 0 0 0 0 0 0 0 0 0 0 0 0 0 0 0 0 0 0 0 0 0 0 0 0 0 0 0 0
0 0 0 0 0 0 0 0 0 0 0 0 0 0 0 0 0 0 0 0 0 0 0 0 0 0 0 0 0 0 0 0 0 0 0 0 0 0 0 0 0 0 0 0 0 0 0 0 0
0 0 0 0 0 0 0 0 0 0 0 0 0 0 0 0 0 0 0 0 0 0 0 0 0 0 0 0 0 0 0 0 0 0 0 0 0 0 0 0 0 0 0 0 0 0 0 0 0

GEFSSGP_con_cape1000_024.txt.gz
Probability
0 0 0 0 0 0 0 0 0 0 0 16 13 0 3 13 6 58 100 35 13 13 81 100 100 100 100 100 100 100 100 100 100 100 100 100 100 100 100 100 100 100 100 100 97 97 100 100 100
0 0 0 0 0 0 0 0 0 0 23 42 32 39 19 32 87 97 94 77 58 52 94 97 100 100 100 100 100 100 100 100 100 100 100 100 100 94 94 90 87 90 100 97 100 100 100 100 97
0 0 0 0 0 0 0 0 0 13 52 19 16 19 10 65 100 97 97 84 84 90 100 100 100 100 100 100 100 100 100 100 100 100 100 100 100 94 90 71 71 74 87 97 97 97 87 74 61
0 0 0 0 0 0 0 0 3 23 29 16 13 16 45 97 100 97 97 90 90 94 90 100 100 100 100 100 100 100 100 100 100 100 100 100 97 94 90 84 84 77 81 87 81 81 52 32 19
0 0 0 0 0 0 0 0 6 13 6 13 10 10 71 100 100 94 97 74 77 74 65 100 100 100 100 100 100 100 100 100 100 100 100 100 100 94 94 84 77 81 84 74 61 52 29 3 0
0 0 0 0 0 0 0 0 16 6 3 3 3 6 68 100 100 94 68 52 52 52 48 100 100 100 100 100 100 100 100 100 100 100 97 97 94 90 90 87 84 81 65 55 48 23 6 0 0
0 0 0 0 0 0 0 3 13 6 0 6 3 10 71 100 97 81 55 42 55 52 61 97 100 100 100 100 100 100 100 100 100 97 97 97 87 81 84 84 74 71 52 35 16 10 3 0 0
0 0 0 0 0 0 0 0 13 10 6 13 6 3 39 100 97 77 68 81 71 68 77 94 100 100 100 100 100 100 100 100 100 97 97 90 87 81 77 87 65 48 39 23 6 3 0 0 0
0 0 0 0 0 0 0 0 13 6 16 26 13 6 16 100 97 97 84 87 97 87 94 94 100 100 100 100 100 100 100 100 100 97 90 87 90 81 74 74 77 52 29 13 6 6 0 0 0
0 0 0 0 0 0 0 0 3 3 19 26 23 39 77 100 100 97 97 97 97 97 100 97 100 100 100 90 100 100 97 100 100 100 100 100 100 87 55 35 84 58 42 16 13 3 0 0 0
0 0 0 0 0 0 0 0 0 0 6 13 26 58 87 100 97 97 97 90 90 97 97 97 94 97 84 94 97 94 87 97 94 94 100 100 90 87 68 68 39 26 13 0 0 0 0 0 0
0 0 0 0 0 0 0 0 0 0 0 0 19 58 97 97 97 97 94 90 87 84 87 84 87 97 90 87 87 94 71 90 74 97 94 87 81 90 61 48 13 13 10 10 6 0 0 0 0
0 0 0 0 0 0 0 0 0 0 0 3 23 77 97 97 97 97 90 87 81 77 87 81 100 100 100 100 97 71 81 81 97 90 90 87 58 61 65 39 45 13 6 3 3 0 0 0 0
0 0 0 0 0 0 0 0 0 0 3 23 52 97 97 90 97 94 90 84 87 81 84 90 100 100 100 100 100 97 90 100 84 74 71 61 52 68 61 61 61 29 19 13 10 0 3 0 0
0 0 0 0 0 0 0 0 0 3 16 42 71 97 94 90 94 90 90 90 90 87 90 94 97 97 97 100 97 90 90 90 74 58 55 35 26 39 35 32 29 19 13 23 13 6 6 10 3
0 0 0 0 0 0 0 0 0 6 19 35 65 90 97 100 97 100 94 97 97 94 90 87 81 94 97 97 97 84 71 61 55 48 32 23 23 23 23 10 6 6 3 3 6 10 6 6 6
0 0 0 0 0 0 0 0 0 10 13 23 52 81 94 100 97 100 94 97 94 97 97 90 87 90 90 84 61 58 58 35 26 19 16 3 3 0 0 0 0 0 0 0 0 0 3 6 6
0 0 0 0 0 0 0 0 0 0 10 16 23 65 94 100 100 100 100 94 90 94 97 90 90 87 71 55 39 23 19 13 0 0 0 0 0 0 0 0 0 0 0 0 0 0 0 0 0
0 0 0 0 0 0 0 0 0 0 10 10 23 42 74 97 100 94 87 81 81 87 87 74 68 58 48 32 16 13 3 0 0 0 0 0 0 0 0 0 0 0 0 0 0 0 0 0 0
0 0 0 0 0 0 0 0 0 0 3 10 16 45 61 94 97 87 81 81 74 71 71 55 42 29 23 23 19 3 3 0 0 0 0 0 0 0 0 0 0 0 0 0 0 0 0 0 0
0 0 0 0 0 0 0 0 0 0 0 6 16 29 55 90 97 87 77 68 65 58 45 23 13 13 6 6 0 0 0 0 0 0 0 0 0 0 0 0 0 0 0 0 0 0 0 0 0
0 0 0 0 0 0 0 0 0 0 0 6 13 42 55 84 97 84 61 39 35 19 6 3 6 3 3 0 0 0 0 0 0 0 0 0 0 0 0 0 0 0 0 0 0 0 0 0 0
0 0 0 0 0 0 0 0 0 0 0 0 16 45 68 94 87 68 42 6 0 0 0 0 0 0 0 0 0 0 0 0 0 0 0 0 0 0 0 0 0 0 0 0 0 0 0 0 0
0 0 0 0 0 0 0 0 0 0 0 0 3 48 90 94 71 32 3 0 0 0 0 0 0 0 0 0 0 0 0 0 0 0 0 0 0 0 0 0 0 0 0 0 0 0 0 0 0
0 0 0 0 0 0 0 0 0 0 0 0 3 45 90 90 42 3 0 0 0 0 0 0 0 0 0 0 0 0 0 0 0 0 0 0 0 0 0 0 0 0 0 0 0 0 0 0 0
0 0 0 0 0 0 0 0 0 0 0 0 3 48 94 77 26 3 0 0 0 0 0 0 0 0 0 0 0 0 0 0 0 0 0 0 0 0 0 0 0 0 0 0 0 0 0 0 0
0 0 0 0 0 0 0 0 0 0 0 0 3 45 87 71 19 0 0 0 0 0 0 0 0 0 0 0 0 0 0 0 0 0 0 0 0 0 0 0 0 0 0 0 0 0 0 0 0
0 0 0 0 0 0 0 0 0 0 0 0 13 45 87 55 19 3 3 0 0 0 0 0 0 0 0 0 0 0 0 0 0 0 0 0 0 0 0 0 0 0 0 0 0 0 0 0 0
0 0 0 0 0 0 0 0 0 0 0 0 35 55 84 52 13 3 0 0 0 0 0 0 0 0 0 0 0 0 0 0 0 0 0 0 0 0 0 0 0 0 0 0 0 0 0 0 0
0 0 0 0 0 0 0 0 0 0 0 0 29 58 77 52 10 3 0 0 0 0 0 0 0 0 0 0 0 0 0 0 0 0 0 0 0 0 0 0 0 0 0 0 0 0 0 0 0

GEFSSGP_con_cape1000_030.txt.gz
Probability
0 0 0 0 0 0 0 0 0 0 0 0 0 0 6 23 84 97 29 48 97 97 97 100 100 100 100 100 100 100 100 100 100 100 100 100 100 100 100 100 97 94 94 94 94 97 97 90 71
0 0 0 0 0 0 0 0 0 0 0 0 0 0 3 19 61 58 35 81 100 100 100 100 100 100 100 100 100 100 100 100 100 100 100 100 100 100 100 90 90 90 94 94 94 90 87 77 61
0 0 0 0 0 0 0 0 0 0 0 0 0 0 0 16 58 81 68 74 100 100 100 100 100 100 100 100 100 100 100 100 100 100 100 100 100 97 87 87 81 87 94 90 90 74 68 42 42
0 0 0 0 0 0 0 0 0 0 0 0 0 0 6 19 87 84 84 84 100 100 100 100 100 100 100 100 100 100 100 100 100 100 100 100 100 90 87 94 90 90 84 84 74 61 32 26 16
0 0 0 0 0 0 0 0 0 0 0 0 0 0 32 68 94 90 87 97 100 100 100 100 100 100 100 100 100 100 100 100 100 100 100 100 100 97 87 81 81 77 71 68 55 35 19 6 0
0 0 0 0 0 0 0 0 0 0 0 0 0 3 45 71 97 94 97 94 100 100 100 100 100 100 100 100 100 100 100 100 100 100 100 100 100 97 94 84 81 61 58 52 29 19 6 0 0
0 0 0 0 0 0 0 0 0 0 0 0 0 3 39 68 84 90 94 94 97 100 100 100 100 100 100 100 100 100 100 100 100 100 100 100 100 97 90 90 74 55 39 45 23 10 3 3 0
0 0 0 0 0 0 0 0 0 0 0 0 0 0 45 71 81 74 77 81 84 97 100 100 100 100 100 100 100 100 100 100 100 97 97 100 100 97 97 94 71 52 45 39 19 6 3 0 0
0 0 0 0 0 0 0 0 0 0 0 0 0 0 55 74 65 68 68 81 84 100 97 100 100 100 100 100 100 100 100 100 97 97 97 97 97 100 97 90 81 55 32 29 13 10 6 6 3
0 0 0 0 0 0 0 0 0 0 0 0 3 32 61 68 61 61 52 84 87 94 94 100 100 100 100 100 100 100 100 100 100 100 97 97 100 100 87 84 84 65 48 39 16 23 10 6 0
0 0 0 0 0 0 0 0 0 0 0 0 6 32 61 61 74 74 68 81 87 87 94 97 97 100 100 100 100 100 100 100 100 100 97 100 100 97 94 84 87 74 45 32 19 13 6 0 0
0 0 0 0 0 0 0 0 0 0 0 0 6 23 45 65 65 68 58 71 87 87 81 84 94 100 100 100 100 100 97 100 100 100 97 100 100 100 100 100 87 77 52 55 26 29 3 0 0
0 0 0 0 0 0 0 0 0 0 0 0 3 13 42 55 61 71 71 74 97 94 90 87 100 100 100 100 100 100 100 94 100 100 97 100 100 100 97 100 90 81 61 52 52 23 19 6 3
0 0 0 0 0 0 0 0 0 0 0 0 3 13 29 48 48 58 74 90 100 97 97 97 100 100 100 100 100 100 100 100 100 100 97 81 100 100 94 97 94 87 87 68 61 48 48 16 35
0 0 0 0 0 0 0 0 0 0 0 0 0 13 23 39 48 65 87 94 100 100 100 100 100 100 100 100 100 100 100 100 100 100 94 77 87 81 84 81 77 77 65 39 68 39 39 39 19
0 0 0 0 0 0 0 0 0 0 0 0 0 6 19 48 48 74 81 97 100 100 100 100 100 100 100 100 100 100 100 100 97 94 84 71 58 52 68 74 55 42 39 39 42 32 29 26 16
0 0 0 0 0 0 0 0 0 0 0 0 3 3 10 35 42 68 71 97 100 100 100 100 100 100 100 100 100 100 97 94 90 77 65 52 32 29 35 48 32 23 26 19 3 6 6 6 6
0 0 0 0 0 0 0 0 0 0 0 0 3 3 6 19 48 81 87 97 100 100 100 100 100 100 100 100 87 84 81 77 68 55 42 32 16 10 16 19 13 6 10 6 10 0 0 0 0
0 0 0 0 0 0 0 0 0 0 0 0 3 3 3 13 42 81 97 100 100 100 100 100 100 100 100 87 84 74 68 55 45 42 19 16 6 6 3 3 3 0 3 0 0 0 0 0 0
0 0 0 0 0 0 0 0 0 0 0 3 3 3 6 23 42 81 100 100 100 100 100 100 100 100 97 87 81 74 55 39 16 6 6 3 3 0 0 3 0 0 0 0 0 0 0 0 0
0 0 0 0 0 0 0 0 0 0 0 0 3 3 6 13 42 87 94 97 100 100 100 100 97 90 81 77 55 39 16 10 3 3 3 0 0 0 0 0 0 0 0 0 0 0 0 0 0
0 0 0 0 0 0 0 0 0 0 0 0 0 3 3 6 42 71 97 97 100 97 97 90 81 74 55 48 35 13 10 0 0 0 0 0 0 0 0 0 0 0 0 0 0 0 0 0 0
0 0 0 0 0 0 0 0 0 0 0 0 0 0 3 3 35 65 90 97 94 90 71 61 48 42 32 26 23 23 6 6 3 3 0 0 0 0 0 0 0 0 0 0 0 0 0 0 0
0 0 0 0 0 0 0 0 0 0 0 0 0 0 0 10 35 84 97 94 84 65 45 35 26 13 13 13 13 10 10 6 3 3 0 0 0 0 0 0 0 0 0 0 0 0 0 0 0
0 0 0 0 0 0 0 0 0 0 0 0 0 3 13 35 68 94 97 77 55 35 23 16 13 6 6 6 6 6 3 3 3 0 0 0 0 0 0 0 0 0 0 0 0 0 0 0 0
0 0 0 0 0 0 0 0 0 0 0 0 0 19 29 58 81 100 81 48 29 19 13 10 3 3 3 3 3 3 3 3 0 0 0 0 0 0 0 0 0 0 0 0 0 0 0 0 0
0 0 0 0 0 0 0 0 0 0 0 0 0 6 32 58 74 90 55 32 23 10 6 3 0 3 3 3 3 3 0 0 0 0 0 0 0 0 0 0 0 0 0 0 0 0 0 0 0
0 0 0 0 0 0 0 0 0 0 0 0 0 0 29 61 74 74 42 26 10 6 6 0 0 0 3 0 0 0 0 0 0 0 0 0 0 0 0 0 0 0 0 0 0 0 0 0 0
0 0 0 0 0 0 0 0 0 0 0 0 0 3 29 65 68 55 29 16 6 3 0 0 0 0 0 0 0 0 0 0 0 0 0 0 0 0 0 0 0 0 0 0 0 0 0 0 0
0 0 0 0 0 0 0 0 0 0 0 0 0 13 39 65 71 55 19 3 3 0 0 0 0 0 0 0 0 0 0 0 0 0 0 0 0 0 0 0 0 0 0 0 0 0 0 0 0